Home > Weather > Doha > Past weeks

Flag for Qatar Past Weather in Doha, Qatar — Yesterday and Last 2 Weeks

Now
93 °F

Clear.


Feels Like: 117 °F
Forecast: 89 / 108 °F
Wind: 8 mph from East

Location: Doha International Airport

Current Time: Aug 26, 2016 at 1:22:05 AM

Latest Report: Aug 26, 2016 at 12:00 AM


Visibility: 10 mi

Pressure: 29.62 "Hg

Humidity: 71%

Dew Point: 82 °F

Location of DohaLocation

Past Weather in Doha — Graph

°F

Doha Temperature Yesterday

Maximum temperature yesterday: 106 °F (at 1:00 PM)
Minimum temperature yesterday: 91 °F (at 5:00 AM)
Average temperature yesterday: 97 °F

High & Low Weather Summary for the Past Weeks

 TemperatureHumidityPressure
High113 °F (Aug 14, 12:00 PM)89% (Aug 12, 1:00 AM)29.62 "Hg (Aug 12, 1:00 AM)
Low90 °F (Aug 12, 1:00 AM)16% (Aug 14, 12:00 PM)29.42 "Hg (Aug 17, 2:00 AM)
Average98 °F59%29.52 "Hg
* Reported Aug 11 12:00 AM — Aug 26 12:00 AM, Doha, Weather by CustomWeather, © 2016

Note: Actual official high and low records may vary slightly from our data, if they occured in-between our weather recording intervals... More about our weather records

Advertising

Doha Weather History for the Previous 24 Hours

Scroll right to see more
 ConditionsComfort  
Time TempWeatherWind HumidityBarometerVisibility
12:00 AM
Fri, Aug 26
93 °FClear.8 mph71%29.62 "Hg10 mi
11:00 PM
Thu, Aug 25
93 °FClear.7 mph71%29.62 "Hg10 mi
10:00 PM93 °FClear.7 mph75%29.62 "Hg10 mi
9:00 PM95 °FClear.7 mph67%29.62 "Hg10 mi
8:00 PM95 °FClear.6 mph67%29.62 "Hg10 mi
7:00 PM97 °FPassing clouds.6 mph60%29.59 "HgN/A
6:00 PM97 °FClear.7 mph56%29.56 "Hg5 mi
5:00 PM99 °FClear.8 mph50%29.56 "Hg5 mi
4:00 PM102 °FClear.9 mph42%29.56 "Hg6 mi
3:00 PM102 °FClear.10 mph40%29.56 "Hg6 mi
2:00 PM106 °FSunny.12 mph25%29.56 "Hg10 mi
1:00 PM106 °FPassing clouds.9 mph25%29.59 "HgN/A
11:00 AM104 °FClear.8 mph43%29.59 "Hg5 mi
10:00 AM102 °FClear.5 mph48%29.62 "Hg4 mi
9:00 AM99 °FClear.7 mph60%29.62 "Hg4 mi
8:00 AM97 °FPassing clouds.6 mph63%29.62 "HgN/A
7:00 AM95 °FSunny.7 mph71%29.59 "Hg10 mi
6:00 AM91 °FSunny.2 mph75%29.59 "Hg10 mi
5:00 AM91 °FClear.2 mph75%29.56 "Hg10 mi
4:00 AM93 °FClear.5 mph71%29.56 "Hg10 mi
3:00 AM93 °FClear.6 mph75%29.53 "Hg10 mi
2:00 AM93 °FClear.6 mph67%29.53 "Hg10 mi
1:00 AM93 °FClear.3 mph67%29.53 "Hg10 mi
Weather by CustomWeather, © 2016

See weather overviewHow to use our weather pages